Regional Weather Roundup
Issued by NWS

Home | Current Version | Previous Version | Text Only | Print | Product List | Glossary Off
Versions: 1 2 3 4 5 6 7 8 9 10 11 12 13 14 15 16 17 18 19 20 21 22 23 24 25 26 27

000
ASUS45 KSLC 230110
RWRUT

UTAH REGIONAL WEATHER ROUNDUP
NATIONAL WEATHER SERVICE SALT LAKE CITY UT
700 PM MDT TUE AUG 22 2017

UTZ001>011-023>025-230200-

NORTHERN UTAH

CITY           SKY/WX    TMP DP  RH WIND       PRES   REMARKS
BRIGHAM CITY   MOSUNNY   89  35  14 SE8       30.12S
HILL AFB       PTSUNNY   83  44  25 SE10      30.18R
LOGAN          MOSUNNY   88  40  18 CALM      30.11F
OGDEN          PTSUNNY   87  42  20 SE8       30.13R
SALT LAKE CITY LGT RAIN  83  46  27 S18G26    30.16R
TOOELE VALLEY  TSTM      70  54  56 SE16G32   30.20R
WENDOVER       CLOUDY    85  45  24 SW5       30.12F
HEBER CITY     DRIZZLE   66  50  55 SE3       30.29S
WEST JORDAN    CLOUDY    74  59  59 SW12      30.21S

$$

UTZ011>015-024>027-230200-

CENTRAL/NORTHEAST UTAH

CITY           SKY/WX    TMP DP  RH WIND       PRES   REMARKS
PROVO AIRPORT  CLOUDY    76  55  48 N21       30.19F
MOAB/CANYONLAN MOSUNNY   88  42  20 CALM      30.10F
DELTA          MOSUNNY   82  41  23 CALM      30.15F
PRICE          PTSUNNY   80  39  23 NE17      30.23F
RICHFIELD      SUNNY     70  54  56 S6        30.23F
ROOSEVELT      CLOUDY    82  37  20 W8        30.20S
VERNAL         CLOUDY    85  40  20 SW10      30.19R

$$

UTZ013>016-019>022-027-230200-

SOUTHERN UTAH

CITY           SKY/WX    TMP DP  RH WIND       PRES   REMARKS
BRYCE CANYON   MOSUNNY   70  47  43 NE12      30.39S
CEDAR CITY     MOSUNNY   83  37  19 SW13      30.20F
MILFORD        CLOUDY    85  44  23 NE5       30.15F
ST GEORGE      CLOUDY    94  46  19 SW6       30.00F HX  90
HANKSVILLE     SUNNY     88  37  16 CALM      30.13S
KANAB          MOSUNNY   86  43  22 SW9       30.19F
BLANDING       SUNNY     82  42  24 CALM      30.29F

$$

REGIONAL REPORTS     COLORADO/ARIZONA

CITY           SKY/WX    TMP DP  RH WIND       PRES   REMARKS
CRAIG, CO      CLOUDY    78  36  21 S10       30.26S
GRAND JUNCTION LGT RAIN  76  49  38 NE17G40   30.20S
RIFLE, CO      CLOUDY    75  44  33 W17       30.25F
MONTROSE, CO   PTCLDY    75  48  38 W8        30.28S
CORTEZ, CO     SUNNY     79  48  33 W8        30.23F
COLORADO CITY    N/A     88  45  22 NW7       30.19F
PAGE, AZ       SUNNY     89  43  20 NE8       30.10F
GRAND CANYON   SUNNY     78  42  27 S8        30.31F
KINGMAN, AZ    SUNNY     93  46  19 NW8       30.05F
FLAGSTAFF, AZ  SUNNY     74  41  30 W3        30.35S

$$

REGIONAL REPORTS    NEVADA/IDAHO/WYOMING

CITY           SKY/WX    TMP DP  RH WIND       PRES   REMARKS
LAS VEGAS, NV  MOSUNNY   99  44  15 NE13      29.93F HX  95
ELY, NY        PTSUNNY   73  46  38 NE6       30.28F
ELKO, NV       LGT RAIN  67  53  61 N14       30.20F
POCATELLO, ID  MOSUNNY   90  33  13 W9        30.09F
BURLEY, ID     PTSUNNY   84  47  27 W8        30.06F
FORT BRIDGER,    N/A     75  35  23 W17       30.36S
EVANSTON, WY   CLOUDY    70  38  31 W14       30.35F
ROCK SPRINGS,  CLOUDY    80  29  15 SW14      30.26F
KEMMERER, WY     N/A     73  28  19 W8        30.33F

$$




USA.gov is the U.S. government's official web portal to all federal, state and local government web resources and services.